Location: Holyhead Bay
(53.3667°N, 4.6667°W)
Time: 06:49:51
(UTC+00:00)

Cosmos 1933 Rocket - Pass Details

Date: 24 November 2020
Orbit: 605 x 631 km, 82.5° (Epoch: 23 January)

Event Time Altitude Azimuth Distance (km) Brightness Sun altitude
Rises 18:49:59 0° 349° (N) 2,936 7.1 -23.1°
Reaches altitude 10° 18:52:14 10° 352° (N) 2,025 6.2 -23.4°
Enters shadow 18:55:16 42° 4° (N) 914 4.3 -23.8°
